Regional Weather Roundup
Issued by NWS

Home | Current Version | Previous Version | Text Only | Print | Product List | Glossary On
Versions: 1 2 3 4 5 6 7 8 9 10 11 12 13 14 15 16 17 18 19 20 21 22 23 24 25 26 27 28 29 30 31 32 33 34 35 36 37 38 39 40 41 42 43 44 45 46 47 48 49 50
000
ASUS43 KDTX 142310
RWRMI
MICHIGAN HOURLY REGIONAL WEATHER ROUNDUP
NATIONAL WEATHER SERVICE DETROIT/PONTIAC MI
700 PM EDT SUN SEP 14 2014

NOTE: "FAIR" INDICATES FEW OR NO CLOUDS BELOW 12,000 FEET WITH NO
SIGNIFICANT WEATHER AND/OR OBSTRUCTION TO VISIBILITY.

MIZ047>049-052>055-059>063-066>070-074>076-081>083-150000-
SOUTHEAST LOWER MICHIGAN

CITY           SKY/WX    TMP DP  RH WIND       PRES   REMARKS
ADRIAN         PTCLDY    62  43  49 SW6       30.21S
ALMA           CLEAR     59  43  55 SW7       30.19S
ANN ARBOR      PTCLDY    60  43  53 SW5       30.21S
BAD AXE        CLOUDY    56  46  67 S6        30.19F
CARO           CLOUDY    57  46  65 S3        30.19S
DETROIT CITY   PTCLDY    63  39  41 W6        30.22S
DETROIT        PTCLDY    61  41  47 SW7       30.22S
FLINT          CLOUDY    60  44  55 SW5       30.20S
GROSSE ILE     PTCLDY    61  45  55 CALM      30.21S
HILLSDALE      CLEAR     61  43  50 W3        30.21S
HOWELL         PTCLDY    57  44  60 SW3       30.20S

CITY           SKY/WX    TMP DP  RH WIND       PRES   REMARKS
JACKSON        PTCLDY    61  44  53 W5        30.21R
LAMBERTVILLE   CLEAR     63  45  51 CALM      30.22S
LANSING        MOCLDY    60  44  55 SW7       30.21S
LAPEER         CLOUDY    58  42  56 SW7       30.21S
MASON          MOCLDY    60  44  54 W6        30.21R
MONROE         CLEAR     61  45  55 S3        30.20S
MT. CLEMENS    PTCLDY    58  43  58 SE6       30.20S
PONTIAC        PTCLDY    58  40  51 SW5       30.20S
PORT HOPE        N/A     57  42  57 CALM      30.18S
PORT HURON     MOCLDY    57  46  67 S5        30.22S
TRI CITIES     CLOUDY    60  45  57 SW7       30.20S
TROY           PTCLDY    62  37  40 SW6       30.23S
SAGINAW HB     CLOUDY    59  43  55 SW5       30.19R
$$
MIZ043>046-050>051-056>058-064>065-071>073-077>080-150000-
SOUTHWEST LOWER MICHIGAN

CITY           SKY/WX    TMP DP  RH WIND       PRES   REMARKS
BATTLE CREEK   CLEAR     61  42  49 W8        30.21S
BENTON HARBOR  CLEAR     60  44  55 SW6       30.20F
BIG RAPIDS     PTCLDY    56  46  70 SW10      30.18S
COLDWATER      CLEAR     62  45  54 SW6       30.21R
FREMONT        FAIR      57  40  52 SW8       30.19S
HOLLAND        CLEAR     60  45  57 SW7       30.20F
GRAND RAPIDS   PTCLDY    60  44  55 W13       30.20S
IONIA          FAIR      61  45  56 W7        30.19S
KALAMAZOO      CLEAR     61  42  49 SW6       30.21F
LUDINGTON      PTCLDY    57  47  67 S12G21    30.16F
MARSHALL       CLEAR     60  43  52 SW5       30.21R
MOUNT PLEASANT CLEAR     59  42  54 SW6       30.18S
MUSKEGON       PTCLDY    59  44  57 SW10      30.20S
SOUTH HAVEN    CLEAR     61  47  59 S5        30.20F
$$
MIZ016>042-150000-
NORTHERN LOWER MICHIGAN

CITY           SKY/WX    TMP DP  RH WIND       PRES   REMARKS
ALPENA         MOCLDY    55  45  68 S7        30.16S
BEAVER ISLAND  MOCLDY    58  45  61 SW15G25   30.08F
BELLAIRE       PTCLDY    59  43  54 S8        30.13F
CADILLAC       PTCLDY    55  45  67 SW10      30.16S
CHARLEVOIX     MOCLDY    58  44  59 SW6       30.14S
FRANKFORT      PTCLDY    58  46  63 S13       30.14S
GAYLORD        PTCLDY    55  43  63 SW10      30.13F
GRAYLING       CLEAR     56  44  62 SW3       30.16S
HARBOR SPRINGS PTCLDY    59  42  54 SW13G18   30.11S
HOUGHTON LAKE  MOCLDY    56  44  64 SW7       30.16F
MANISTEE       PTCLDY    57  43  58 SW6G17    30.16F
OSCODA         CLOUDY    56  45  65 S3        30.17S
PELLSTON       MOCLDY    58  44  60 S3        30.11S
ROGERS CITY    PTCLDY    56  47  72 S7        30.14F
TRAVERSE CITY  MOCLDY    59  43  55 SW9       30.13S
$$
MIZ007>008-015-150000-
EASTERN UPPER MICHIGAN

CITY           SKY/WX    TMP DP  RH WIND       PRES   REMARKS
KINROSS        CLOUDY    55  43  62 SW8G17    30.09S
MACKINAC ISLAN CLOUDY    57  42  59 SW9G18    30.10S
NEWBERRY       CLOUDY    55  44  67 SW15G22   30.06S
S. S. MARIE    CLOUDY    54  43  66 S8        30.08S
MUNISING         N/A     58  48  69 S7G16     30.00F
$$
MIZ004>006-011>014-085-150000-
CENTRAL UPPER MICHIGAN

CITY           SKY/WX    TMP DP  RH WIND       PRES   REMARKS
MANISTIQUE     CLOUDY    56  48  74 SW16G25   30.05F
ESCANABA       MOCLDY    59  48  67 SW17G24   30.03S
MENOMINEE      PTSUNNY   63  46  55 SW9       30.04S
$$
MIZ001>003-009>011-084-150000-
WESTERN UPPER MICHIGAN

CITY           SKY/WX    TMP DP  RH WIND       PRES   REMARKS
IRON MOUNTAIN  MOSUNNY   61  44  53 W6        30.02S
HOUGHTON       CLOUDY    54  40  59 W16       30.00R
COPPER HARBOR    N/A     56  41  57 NW8       29.98S
IRONWOOD       PTSUNNY   57  43  58 NW10G16   30.03R
$$

ABBREVIATIONS USED IN REMARKS
   TC - TEMPERATURE IN CELSIUS
  WCI - WIND CHILL INDEX
   HX - HEAT INDEX
  VSB - VISIBILITY



USA.gov is the U.S. government's official web portal to all federal, state and local government web resources and services.